[[{"header":{"parameterUnit":"m.s-1","parameterCategory":1,"la1":30.2991,"la2":30.254,"lo1":-89.0895,"lo2":-89.0444,"dy":0.0017,"dx":0.0017,"nx":28,"ny":28,"refTime":"2025-04-30T03:00:00:Z","depth":0,"parameterNumber":2,"parameterNumberName":"U-component_of_WINDS"},"data":[0,0,0,0,0,0,0,0,0,0,0,0,0,0,0,0,0,0,0,0,0,0,0,0,0,0,0,0,0,0,0,0,0,0,0,0,0,0,0,0,0,0,0,0,0,0,0,0,0,0,0,0,0,0,0,0,0,0,-2.8749,-2.8749,0,-2.8756,-2.8756,-2.8756,-2.8724,-2.8723,-2.8722,-2.8721,-2.8729,-2.873,-2.8731,0,0,0,0,0,0,0,0,0,0,0,0,0,-2.871,-2.8711,-2.8749,-2.8749,-2.8749,-2.8756,-2.8756,-2.8756,-2.8724,-2.8723,-2.8722,-2.8721,-2.8729,-2.873,-2.8731,0,0,0,0,0,0,0,0,0,0,0,0,0,-2.8723,-2.8712,-2.8749,-2.8734,-2.8733,-2.8756,-2.8756,-2.8756,-2.8725,-2.8723,-2.8722,-2.872,-2.8728,-2.873,-2.8731,-2.8769,0,0,-2.8736,-2.8737,0,0,0,0,0,0,0,0,-2.8723,-2.8725,-2.8736,-2.8735,-2.8734,-2.8738,-2.8745,-2.876,-2.8725,-2.8728,-2.8721,-2.872,-2.8733,-2.8734,-2.8738,-2.8769,-2.877,-2.8736,-2.8737,-2.8738,-2.8738,0,0,0,0,0,0,0,-2.8722,-2.8724,-2.8752,-2.8737,-2.8735,-2.8728,-2.8728,-2.8748,-2.8738,-2.8727,-2.8725,-2.8726,-2.8732,-2.8737,-2.8738,-2.877,-2.8736,-2.8738,-2.8739,-2.8739,-2.8833,-2.8835,0,0,0,0,0,0,-2.8723,-2.8724,-2.8752,-2.8752,-2.8725,-2.873,-2.873,-2.8738,-2.8738,-2.8736,-2.8728,-2.8725,-2.8735,-2.8737,-2.8739,-2.8783,-2.8738,-2.8739,-2.874,-2.8832,-2.8834,-2.8835,0,0,0,0,0,0,-2.8722,-2.8725,-2.8751,-2.8737,-2.874,-2.8732,-2.8741,-2.8739,-2.8744,-2.8738,-2.8736,-2.8734,-2.8734,-2.8736,-2.8762,-2.8783,-2.874,-2.8742,-2.883,-2.8832,-2.8834,-2.8872,0,0,0,0,0,0,-2.8721,-2.8725,-2.8739,-2.8738,-2.8741,-2.8774,-2.8742,-2.874,-2.8746,-2.8743,-2.8744,-2.8742,-2.8733,-2.876,-2.8764,-2.8784,-2.8743,-2.8828,-2.8831,-2.8834,-2.8869,-2.8875,-2.8881,0,0,0,0,0,-2.872,-2.8749,-2.874,-2.8743,-2.8758,-2.8775,-2.8777,-2.8765,-2.8748,-2.8762,-2.8759,-2.8742,-2.878,-2.8763,-2.8767,-2.8788,-2.8827,-2.883,-2.8834,-2.8866,-2.8874,-2.8881,0,0,0,0,0,0,-2.8752,-2.8749,-2.8738,-2.8768,-2.8772,-2.877,-2.8787,-2.8774,-2.8783,-2.878,-2.8765,-2.8766,-2.8794,-2.8794,-2.8774,-2.8825,-2.8801,-2.8805,-2.8824,-2.8831,-2.8837,-2.8836,-2.8744,0,0,0,0,0,-2.8763,-2.8778,-2.8774,-2.88,-2.8803,-2.8795,-2.8802,-2.8793,-2.8797,-2.8798,-2.8797,-2.8801,-2.8814,-2.8823,-2.8835,-2.8869,-2.8869,-2.8886,-2.8892,-2.8897,-2.8901,-2.892,-2.8927,-2.8847,-2.8847,-2.8847,0,0,-2.8785,-2.8785,-2.8795,-2.8807,-2.8809,-2.8825,-2.8796,-2.8814,-2.8825,-2.8801,-2.8825,-2.8824,-2.8829,-2.8859,-2.8872,-2.886,-2.8923,-2.8902,-2.8906,-2.8906,-2.8924,-2.8932,-2.8938,-2.8849,-2.8849,-2.8848,0,0,-2.8834,-2.8835,-2.8857,-2.8861,-2.8865,-2.8859,-2.8865,-2.8865,-2.8864,-2.8888,-2.887,-2.8884,-2.8907,-2.8911,-2.8916,-2.8968,-2.8953,-2.8973,-2.9003,-2.9022,-2.9028,-2.9034,-2.9052,-2.9059,-2.8976,-2.8977,-2.8977,0,-2.886,-2.8883,-2.8871,-2.889,-2.8896,-2.8875,-2.8899,-2.8902,-2.891,-2.8915,-2.8901,-2.893,-2.8931,-2.8963,-2.8976,-2.8981,-2.8987,-2.8971,-2.9028,-2.9034,-2.9039,-2.9056,-2.9063,-2.8979,-2.8979,-2.8978,-2.8978,0,-2.8916,-2.8932,-2.895,-2.8958,-2.8966,-2.8987,-2.8979,-2.8989,-2.8981,-2.8977,-2.9003,-2.9004,-2.9016,-2.9023,-2.9014,-2.9054,-2.9046,-2.9031,-2.9005,-2.9049,-2.9065,-2.9071,-2.8982,-2.8981,-2.898,-2.898,0,0,-2.8982,-2.8985,-2.8992,-2.8996,-2.9,-2.9012,-2.9033,-2.9045,-2.9054,-2.9061,-2.9078,-2.9099,-2.9085,-2.9091,-2.9083,-2.9099,-2.9141,-2.9082,-2.9082,-2.9092,-2.9185,-2.9195,-2.9203,-2.9132,-2.9133,-2.9134,-2.9184,0,-2.9029,-2.9064,-2.9055,-2.909,-2.9105,-2.9087,-2.9105,-2.911,-2.9108,-2.9121,-2.9119,-2.9134,-2.9115,-2.9118,-2.9134,-2.9132,-2.9159,-2.9129,-2.9148,-2.9149,-2.9146,-2.9212,-2.9223,-2.9269,-2.919,-2.9191,-2.9192,0,-2.9087,-2.9097,-2.9133,-2.9136,-2.9142,-2.9158,-2.9169,-2.9182,-2.9188,-2.9185,-2.9193,-2.9182,-2.9204,-2.918,-2.9209,-2.9189,-2.9197,-2.9198,-2.9199,-2.9199,-2.9172,-2.9213,-2.9284,-2.9291,-2.9202,-2.9201,-2.9201,0,-2.9132,-2.9154,-2.9179,-2.9183,-2.9186,-2.9199,-2.9201,-2.9205,-2.9214,-2.9224,-2.9229,-2.9241,-2.9248,-2.9258,-2.9252,-2.9235,-2.9283,-2.9258,-2.9281,-2.9281,-2.9291,-2.929,-2.9363,-2.9298,-2.9297,-2.9297,-2.9297,0,-2.9184,-2.9207,-2.9199,-2.9214,-2.924,-2.923,-2.9256,-2.9256,-2.9261,-2.9276,-2.9262,-2.9277,-2.9268,-2.9282,-2.9278,-2.9303,-2.9306,-2.9305,-2.9303,-2.9306,-2.9306,-2.9309,-2.9306,-2.9299,-2.9299,-2.9298,-2.9298,0,-2.9237,-2.9232,-2.9258,-2.9261,-2.9262,-2.9281,-2.9283,-2.9297,-2.9295,-2.9315,-2.9319,-2.9316,-2.9332,-2.9327,-2.9345,-2.9342,-2.9374,-2.9369,-2.9372,-2.937,-2.9394,-2.9391,-2.9471,-2.9481,-2.941,-2.941,-2.9411,0,-2.927,-2.9288,-2.9292,-2.9301,-2.9305,-2.932,-2.9329,-2.9321,-2.933,-2.9339,-2.9353,-2.9368,-2.938,-2.9407,-2.9407,-2.9421,-2.9415,-2.9442,-2.9417,-2.9419,-2.9415,-2.9413,-2.9415,-2.9447,-2.9447,-2.9448,-2.9449,0,-2.933,-2.9327,-2.9339,-2.9352,-2.9363,-2.9372,-2.938,-2.9389,-2.9382,-2.9393,-2.941,-2.9419,-2.9438,-2.9454,-2.9467,-2.947,-2.9458,-2.9457,-2.9463,-2.9465,-2.9466,-2.9465,-2.9385,-2.9455,-2.9454,-2.9454,-2.9453,-2.9453,-2.9373,-2.9388,-2.9394,-2.9409,-2.9414,-2.9423,-2.9437,-2.9437,-2.9451,-2.9465,-2.946,-2.9479,-2.9486,-2.9503,-2.9508,-2.9523,-2.9513,-2.9522,-2.9524,-2.9526,-2.9528,-2.9465,-2.9526,-2.9525,-2.9525,-2.9525,-2.9525,0,-2.9431,-2.9435,-2.9449,-2.9461,-2.9473,-2.9462,-2.9471,-2.9482,-2.9499,-2.9506,-2.9519,-2.9539,-2.9554,-2.9556,-2.9571,-2.9583,-2.9578,-2.9587,-2.9585,-2.9586,-2.9537,-2.953,-2.959,-2.959,-2.959,-2.959,-2.959,-2.959,-2.9463,-2.9488,-2.9486,-2.9514,-2.9517,-2.9536,-2.9542,-2.955,-2.9556,-2.9579,-2.9592,-2.9593,-2.9598,-2.9614,-2.9628,-2.9628,-2.9634,-2.9644,-2.9643,-2.9596,-2.959,-2.9583,-2.9577,-2.9646,-2.9646,-2.969,-2.9691,-2.9691]},{"header":{"parameterUnit":"m.s-1","parameterCategory":1,"la1":30.2991,"la2":30.254,"lo1":-89.0895,"lo2":-89.0444,"dy":0.0017,"dx":0.0017,"nx":28,"ny":28,"refTime":"2025-04-30T03:00:00:Z","depth":0,"parameterNumber":3,"parameterNumberName":"V-component_of_WINDS"},"data":[0,0,0,0,0,0,0,0,0,0,0,0,0,0,0,0,0,0,0,0,0,0,0,0,0,0,0,0,0,0,0,0,0,0,0,0,0,0,0,0,0,0,0,0,0,0,0,0,0,0,0,0,0,0,0,0,0,0,4.2372,4.2371,0,4.2356,4.2356,4.2355,4.237,4.237,4.2371,4.2372,4.2351,4.2349,4.2348,0,0,0,0,0,0,0,0,0,0,0,0,0,4.241,4.241,4.2372,4.2371,4.2371,4.2356,4.2356,4.2355,4.237,4.2371,4.2371,4.2372,4.2351,4.235,4.2348,0,0,0,0,0,0,0,0,0,0,0,0,0,4.2394,4.2409,4.2372,4.2377,4.2377,4.2356,4.2356,4.2355,4.237,4.2371,4.2371,4.2372,4.2351,4.235,4.2348,4.232,0,0,4.2343,4.2342,0,0,0,0,0,0,0,0,4.2395,4.2392,4.2376,4.2376,4.2377,4.2366,4.2362,4.2343,4.2369,4.2372,4.2372,4.2373,4.2355,4.2353,4.2348,4.2319,4.2318,4.2343,4.2342,4.2341,4.2341,0,0,0,0,0,0,0,4.2396,4.2393,4.2365,4.2376,4.2376,4.2378,4.2377,4.2358,4.2358,4.2372,4.2373,4.2371,4.2355,4.2349,4.2347,4.2318,4.2343,4.2341,4.234,4.234,4.2265,4.2264,0,0,0,0,0,0,4.2397,4.2394,4.2366,4.2365,4.2388,4.2377,4.2376,4.2368,4.2359,4.2358,4.2371,4.2372,4.2352,4.2349,4.2347,4.2313,4.2341,4.2339,4.2339,4.2266,4.2265,4.2264,0,0,0,0,0,0,4.2398,4.2395,4.2366,4.238,4.2376,4.2376,4.2367,4.2368,4.2362,4.2358,4.2357,4.2365,4.2352,4.2349,4.2327,4.2313,4.2339,4.2337,4.2267,4.2266,4.2265,4.2246,0,0,0,0,0,0,4.2399,4.2395,4.2385,4.2379,4.2376,4.2348,4.2366,4.2367,4.236,4.2361,4.2352,4.2352,4.2353,4.2329,4.2325,4.2311,4.2336,4.2269,4.2267,4.2265,4.2248,4.2244,4.2241,0,0,0,0,0,4.24,4.2379,4.2384,4.2381,4.2363,4.2347,4.2345,4.2348,4.2358,4.2348,4.2345,4.2352,4.2315,4.2327,4.2322,4.2307,4.2269,4.2267,4.2265,4.2249,4.2245,4.2241,0,0,0,0,0,0,4.238,4.2378,4.2384,4.2361,4.2354,4.235,4.2336,4.2343,4.2332,4.2334,4.2337,4.2335,4.2311,4.2307,4.232,4.228,4.2294,4.2291,4.2283,4.2279,4.2276,4.2277,4.2335,0,0,0,0,0,4.2374,4.2362,4.236,4.234,4.2336,4.2337,4.233,4.2333,4.2326,4.2323,4.2319,4.231,4.2297,4.2288,4.2275,4.2248,4.2246,4.2235,4.2232,4.2229,4.2226,4.2211,4.2206,4.2257,4.2257,4.2257,0,0,4.2359,4.2356,4.2348,4.2336,4.2331,4.2318,4.2334,4.232,4.231,4.232,4.23,4.2296,4.2287,4.2262,4.2251,4.2258,4.2212,4.2226,4.2224,4.2222,4.2208,4.2204,4.2199,4.2255,4.2256,4.2256,0,0,4.2325,4.2322,4.2305,4.2301,4.2295,4.2295,4.2291,4.2286,4.2285,4.2265,4.2273,4.226,4.2237,4.223,4.2224,4.2189,4.2195,4.2185,4.2166,4.2152,4.2148,4.2145,4.2133,4.2128,4.2182,4.2182,4.2182,0,4.2307,4.2289,4.2295,4.2281,4.2274,4.2286,4.2268,4.2263,4.2252,4.2247,4.2255,4.2227,4.2221,4.2196,4.2188,4.2182,4.2177,4.2186,4.2149,4.2145,4.2142,4.213,4.2126,4.2181,4.2181,4.2181,4.2181,0,4.2267,4.2255,4.2242,4.2233,4.2226,4.2209,4.2212,4.2203,4.2207,4.2207,4.2186,4.218,4.2167,4.2161,4.2164,4.2136,4.2141,4.2149,4.2163,4.2136,4.2125,4.2121,4.2179,4.218,4.218,4.218,0,0,4.222,4.2216,4.2211,4.2208,4.2202,4.2192,4.2176,4.2165,4.2158,4.215,4.2136,4.2117,4.2125,4.2118,4.212,4.2108,4.2081,4.2118,4.2117,4.2111,4.205,4.2043,4.2038,4.2085,4.2084,4.2084,4.2051,0,4.2186,4.2161,4.2166,4.214,4.2128,4.2139,4.2125,4.212,4.2119,4.2108,4.2107,4.2094,4.2105,4.2101,4.2089,4.2087,4.2069,4.2089,4.2071,4.2071,4.2073,4.2032,4.2026,4.1994,4.2046,4.2046,4.2045,0,4.2143,4.2137,4.211,4.2107,4.2103,4.209,4.2081,4.2071,4.2064,4.2065,4.2058,4.2063,4.2046,4.2061,4.2038,4.2052,4.2045,4.2042,4.2041,4.2039,4.2056,4.2029,4.1985,4.198,4.2038,4.2039,4.2039,0,4.2112,4.2095,4.2078,4.2074,4.2071,4.2062,4.2059,4.2054,4.2048,4.2039,4.2035,4.2024,4.2017,4.2008,4.201,4.2021,4.1986,4.2001,4.1985,4.1985,4.1976,4.1977,4.193,4.1972,4.1973,4.1973,4.1973,0,4.2073,4.2057,4.2064,4.2052,4.2034,4.204,4.2021,4.202,4.2016,4.2004,4.2012,4.2001,4.2004,4.1992,4.1993,4.1974,4.197,4.197,4.197,4.1969,4.1969,4.1964,4.1966,4.1971,4.1972,4.1972,4.1972,0,4.2034,4.2038,4.202,4.2019,4.2018,4.2004,4.2003,4.1992,4.1993,4.1978,4.1975,4.1975,4.1962,4.1963,4.1947,4.1948,4.1924,4.1927,4.1927,4.1927,4.1911,4.1913,4.1859,4.1852,4.19,4.1899,4.1899,0,4.201,4.1998,4.1996,4.1989,4.1987,4.1976,4.197,4.1976,4.1969,4.1961,4.1951,4.194,4.193,4.1908,4.1907,4.1895,4.1897,4.188,4.1896,4.1895,4.1897,4.1898,4.1897,4.1876,4.1876,4.1875,4.1875,0,4.1966,4.1969,4.196,4.1953,4.1946,4.1939,4.1934,4.1928,4.1933,4.1924,4.1912,4.1905,4.189,4.1878,4.1867,4.1863,4.187,4.187,4.1866,4.1864,4.1864,4.1864,4.1918,4.1871,4.1871,4.1872,4.1872,4.1872,4.1933,4.1923,4.1921,4.1911,4.1908,4.1903,4.1893,4.1893,4.1884,4.1874,4.1877,4.1863,4.1857,4.1844,4.1839,4.1828,4.1834,4.1828,4.1826,4.1824,4.1823,4.1867,4.1826,4.1826,4.1826,4.1826,4.1826,0,4.1889,4.1889,4.188,4.1873,4.1866,4.1874,4.1869,4.1861,4.1849,4.1845,4.1836,4.1822,4.181,4.1808,4.1797,4.1788,4.1791,4.1785,4.1785,4.1785,4.1818,4.1823,4.1783,4.1783,4.1783,4.1783,4.1783,4.1783,4.1866,4.1849,4.1852,4.1834,4.1833,4.1821,4.1817,4.1812,4.1809,4.1793,4.1785,4.1784,4.178,4.1769,4.1758,4.1758,4.1753,4.1747,4.1747,4.1778,4.1782,4.1786,4.1791,4.1746,4.1745,4.1715,4.1715,4.1715]}]]